Year,Month,Day,Hour,Minute,Value (Times are PST for windgust in km/hr)
2015,01,18,00,00,11.30
2015,01,18,00,01,8.10
2015,01,18,00,02,4.80
2015,01,18,00,03,4.80
2015,01,18,00,04,6.40
2015,01,18,00,05,4.80
2015,01,18,00,06,6.40
2015,01,18,00,07,6.40
2015,01,18,00,08,11.30
2015,01,18,00,09,11.30
2015,01,18,00,10,12.90
2015,01,18,00,11,12.90
2015,01,18,00,12,12.90
2015,01,18,00,13,8.10
2015,01,18,00,14,11.30
2015,01,18,00,15,11.30
2015,01,18,00,16,6.40
2015,01,18,00,17,8.10
2015,01,18,00,18,9.60
2015,01,18,00,19,8.10
2015,01,18,00,20,8.10
2015,01,18,00,21,8.10
2015,01,18,00,22,9.60
2015,01,18,00,23,9.60
2015,01,18,00,24,6.40
2015,01,18,00,25,9.60
2015,01,18,00,26,8.10
2015,01,18,00,27,8.10
2015,01,18,00,28,9.60
2015,01,18,00,29,8.10
2015,01,18,00,30,8.10
2015,01,18,00,31,8.10
2015,01,18,00,32,8.10
2015,01,18,00,33,8.10
2015,01,18,00,34,8.10
2015,01,18,00,35,4.80
2015,01,18,00,36,6.40
2015,01,18,00,37,6.40
2015,01,18,00,38,4.80
2015,01,18,00,39,3.20
2015,01,18,00,40,3.20
2015,01,18,00,41,4.80
2015,01,18,00,42,3.20
2015,01,18,00,43,4.80
2015,01,18,00,44,4.80
2015,01,18,00,45,4.80
2015,01,18,00,46,4.80
2015,01,18,00,47,6.40
2015,01,18,00,48,9.60
2015,01,18,00,49,9.60
2015,01,18,00,50,8.10
2015,01,18,00,51,12.90
2015,01,18,00,52,11.30
2015,01,18,00,53,8.10
2015,01,18,00,54,9.60
2015,01,18,00,55,11.30
2015,01,18,00,56,11.30
2015,01,18,00,57,8.10
2015,01,18,00,58,11.30
2015,01,18,00,59,9.60
2015,01,18,01,00,6.40
2015,01,18,01,01,6.40
2015,01,18,01,02,8.10
2015,01,18,01,03,8.10
2015,01,18,01,04,12.90
2015,01,18,01,05,11.30
2015,01,18,01,06,9.60
2015,01,18,01,07,11.30
2015,01,18,01,08,9.60
2015,01,18,01,09,8.10
2015,01,18,01,10,6.40
2015,01,18,01,11,6.40
2015,01,18,01,12,4.80
2015,01,18,01,13,4.80
2015,01,18,01,14,6.40
2015,01,18,01,15,14.50
2015,01,18,01,16,16.10
2015,01,18,01,17,11.30
2015,01,18,01,18,8.10
2015,01,18,01,19,8.10
2015,01,18,01,20,4.80
2015,01,18,01,21,3.20
2015,01,18,01,22,6.40
2015,01,18,01,23,8.10
2015,01,18,01,24,4.80
2015,01,18,01,25,4.80
2015,01,18,01,26,6.40
2015,01,18,01,27,6.40
2015,01,18,01,28,4.80
2015,01,18,01,29,4.80
2015,01,18,01,30,6.40
2015,01,18,01,31,6.40
2015,01,18,01,32,8.10
2015,01,18,01,33,11.30
2015,01,18,01,34,12.90
2015,01,18,01,35,11.30
2015,01,18,01,36,11.30
2015,01,18,01,37,14.50
2015,01,18,01,38,14.50
2015,01,18,01,39,25.70
2015,01,18,01,40,32.20
2015,01,18,01,41,33.80
2015,01,18,01,42,30.60
2015,01,18,01,43,24.20
2015,01,18,01,44,29.00
2015,01,18,01,45,33.80
2015,01,18,01,46,38.60
2015,01,18,01,47,38.60
2015,01,18,01,48,33.80
2015,01,18,01,49,41.80
2015,01,18,01,50,46.70
2015,01,18,01,51,46.70
2015,01,18,01,52,51.50
2015,01,18,01,53,48.30
2015,01,18,01,54,37.00
2015,01,18,01,55,41.80
2015,01,18,01,56,40.20
2015,01,18,01,57,53.10
2015,01,18,01,58,46.70
2015,01,18,01,59,40.20
2015,01,18,02,00,45.10
2015,01,18,02,01,46.70
2015,01,18,02,02,40.20
2015,01,18,02,03,46.70
2015,01,18,02,04,37.00
2015,01,18,02,05,56.30
2015,01,18,02,06,56.30
2015,01,18,02,07,54.70
2015,01,18,02,08,38.60
2015,01,18,02,09,45.10
2015,01,18,02,10,49.90
2015,01,18,02,11,41.80
2015,01,18,02,12,30.60
2015,01,18,02,13,33.80
2015,01,18,02,14,51.50
2015,01,18,02,15,41.80
2015,01,18,02,16,45.10
2015,01,18,02,17,40.20
2015,01,18,02,18,35.40
2015,01,18,02,19,53.10
2015,01,18,02,20,40.20
2015,01,18,02,21,35.40
2015,01,18,02,22,43.50
2015,01,18,02,23,38.60
2015,01,18,02,24,37.00
2015,01,18,02,25,27.40
2015,01,18,02,26,35.40
2015,01,18,02,27,37.00
2015,01,18,02,28,22.50
2015,01,18,02,29,38.60
2015,01,18,02,30,35.40
2015,01,18,02,31,35.40
2015,01,18,02,32,22.50
2015,01,18,02,33,24.20
2015,01,18,02,34,33.80
2015,01,18,02,35,19.30
2015,01,18,02,36,17.70
2015,01,18,02,37,27.40
2015,01,18,02,38,20.90
2015,01,18,02,39,22.50
2015,01,18,02,40,16.10
2015,01,18,02,41,16.10
2015,01,18,02,42,32.20
2015,01,18,02,43,20.90
2015,01,18,02,44,29.00
2015,01,18,02,45,27.40
2015,01,18,02,46,27.40
2015,01,18,02,47,24.20
2015,01,18,02,48,19.30
2015,01,18,02,49,22.50
2015,01,18,02,50,16.10
2015,01,18,02,51,20.90
2015,01,18,02,52,19.30
2015,01,18,02,53,17.70
2015,01,18,02,54,16.10
2015,01,18,02,55,12.90
2015,01,18,02,56,24.20
2015,01,18,02,57,16.10
2015,01,18,02,58,19.30
2015,01,18,02,59,20.90
2015,01,18,03,00,19.30
2015,01,18,03,01,14.50
2015,01,18,03,02,19.30
2015,01,18,03,03,16.10
2015,01,18,03,04,16.10
2015,01,18,03,05,14.50
2015,01,18,03,06,17.70
2015,01,18,03,07,19.30
2015,01,18,03,08,24.20
2015,01,18,03,09,30.60
2015,01,18,03,10,33.80
2015,01,18,03,11,25.70
2015,01,18,03,12,32.20
2015,01,18,03,13,33.80
2015,01,18,03,14,32.20
2015,01,18,03,15,24.20
2015,01,18,03,16,17.70
2015,01,18,03,17,12.90
2015,01,18,03,18,14.50
2015,01,18,03,19,24.20
2015,01,18,03,20,29.00
2015,01,18,03,21,29.00
2015,01,18,03,22,20.90
2015,01,18,03,23,20.90
2015,01,18,03,24,20.90
2015,01,18,03,25,22.50
2015,01,18,03,26,29.00
2015,01,18,03,27,20.90
2015,01,18,03,28,16.10
2015,01,18,03,29,14.50
2015,01,18,03,30,16.10
2015,01,18,03,31,19.30
2015,01,18,03,32,22.50
2015,01,18,03,33,14.50
2015,01,18,03,34,14.50
2015,01,18,03,35,14.50
2015,01,18,03,36,14.50
2015,01,18,03,37,12.90
2015,01,18,03,38,11.30
2015,01,18,03,39,12.90
2015,01,18,03,40,12.90
2015,01,18,03,41,30.60
2015,01,18,03,42,20.90
2015,01,18,03,43,12.90
2015,01,18,03,44,16.10
2015,01,18,03,45,14.50
2015,01,18,03,46,11.30
2015,01,18,03,47,17.70
2015,01,18,03,48,17.70
2015,01,18,03,49,14.50
2015,01,18,03,50,22.50
2015,01,18,03,51,16.10
2015,01,18,03,52,11.30
2015,01,18,03,53,16.10
2015,01,18,03,54,12.90
2015,01,18,03,55,16.10
2015,01,18,03,56,14.50
2015,01,18,03,57,17.70
2015,01,18,03,58,17.70
2015,01,18,03,59,24.20
2015,01,18,04,00,14.50
2015,01,18,04,01,14.50
2015,01,18,04,02,20.90
2015,01,18,04,03,20.90
2015,01,18,04,04,14.50
2015,01,18,04,05,16.10
2015,01,18,04,06,17.70
2015,01,18,04,07,19.30
2015,01,18,04,08,16.10
2015,01,18,04,09,12.90
2015,01,18,04,10,17.70
2015,01,18,04,11,14.50
2015,01,18,04,12,11.30
2015,01,18,04,13,11.30
2015,01,18,04,14,11.30
2015,01,18,04,15,11.30
2015,01,18,04,16,11.30
2015,01,18,04,17,16.10
2015,01,18,04,18,19.30
2015,01,18,04,19,19.30
2015,01,18,04,20,17.70
2015,01,18,04,21,11.30
2015,01,18,04,22,14.50
2015,01,18,04,23,12.90
2015,01,18,04,24,14.50
2015,01,18,04,25,19.30
2015,01,18,04,26,14.50
2015,01,18,04,27,12.90
2015,01,18,04,28,16.10
2015,01,18,04,29,12.90
2015,01,18,04,30,12.90
2015,01,18,04,31,9.60
2015,01,18,04,32,11.30
2015,01,18,04,33,12.90
2015,01,18,04,34,11.30
2015,01,18,04,35,9.60
2015,01,18,04,36,4.80
2015,01,18,04,37,4.80
2015,01,18,04,38,9.60
2015,01,18,04,39,8.10
2015,01,18,04,40,11.30
2015,01,18,04,41,9.60
2015,01,18,04,42,9.60
2015,01,18,04,43,11.30
2015,01,18,04,44,14.50
2015,01,18,04,45,9.60
2015,01,18,04,46,12.90
2015,01,18,04,47,11.30
2015,01,18,04,48,11.30
2015,01,18,04,49,8.10
2015,01,18,04,50,9.60
2015,01,18,04,51,6.40
2015,01,18,04,52,8.10
2015,01,18,04,53,12.90
2015,01,18,04,54,12.90
2015,01,18,04,55,9.60
2015,01,18,04,56,11.30
2015,01,18,04,57,11.30
2015,01,18,04,58,8.10
2015,01,18,04,59,4.80
2015,01,18,05,00,6.40
2015,01,18,05,01,8.10
2015,01,18,05,02,14.50
2015,01,18,05,03,11.30
2015,01,18,05,04,9.60
2015,01,18,05,05,8.10
2015,01,18,05,06,6.40
2015,01,18,05,07,8.10
2015,01,18,05,08,14.50
2015,01,18,05,09,19.30
2015,01,18,05,10,22.50
2015,01,18,05,11,27.40
2015,01,18,05,12,24.20
2015,01,18,05,13,27.40
2015,01,18,05,14,30.60
2015,01,18,05,15,30.60
2015,01,18,05,16,27.40
2015,01,18,05,17,16.10
2015,01,18,05,18,20.90
2015,01,18,05,19,14.50
2015,01,18,05,20,11.30
2015,01,18,05,21,16.10
2015,01,18,05,22,11.30
2015,01,18,05,23,11.30
2015,01,18,05,24,9.60
2015,01,18,05,25,11.30
2015,01,18,05,26,11.30
2015,01,18,05,27,14.50
2015,01,18,05,28,17.70
2015,01,18,05,29,20.90
2015,01,18,05,30,12.90
2015,01,18,05,31,16.10
2015,01,18,05,32,22.50
2015,01,18,05,33,24.20
2015,01,18,05,34,16.10
2015,01,18,05,35,19.30
2015,01,18,05,36,22.50
2015,01,18,05,37,46.70
2015,01,18,05,38,35.40
2015,01,18,05,39,38.60
2015,01,18,05,40,46.70
2015,01,18,05,41,35.40
2015,01,18,05,42,38.60
2015,01,18,05,43,40.20
2015,01,18,05,44,33.80
2015,01,18,05,45,27.40
2015,01,18,05,46,33.80
2015,01,18,05,47,37.00
2015,01,18,05,48,40.20
2015,01,18,05,49,54.70
2015,01,18,05,50,38.60
2015,01,18,05,51,40.20
2015,01,18,05,52,49.90
2015,01,18,05,53,48.30
2015,01,18,05,54,32.20
2015,01,18,05,55,33.80
2015,01,18,05,56,43.50
2015,01,18,05,57,35.40
2015,01,18,05,58,49.90
2015,01,18,05,59,51.50
2015,01,18,06,00,33.80
2015,01,18,06,01,40.20
2015,01,18,06,02,53.10
2015,01,18,06,03,37.00
2015,01,18,06,04,66.00
2015,01,18,06,05,49.90
2015,01,18,06,06,46.70
2015,01,18,06,07,48.30
2015,01,18,06,08,32.20
2015,01,18,06,09,40.20
2015,01,18,06,10,29.00
2015,01,18,06,11,32.20
2015,01,18,06,12,33.80
2015,01,18,06,13,32.20
2015,01,18,06,14,27.40
2015,01,18,06,15,37.00
2015,01,18,06,16,43.50
2015,01,18,06,17,54.70
2015,01,18,06,18,35.40
2015,01,18,06,19,33.80
2015,01,18,06,20,35.40
2015,01,18,06,21,45.10
2015,01,18,06,22,30.60
2015,01,18,06,23,32.20
2015,01,18,06,24,29.00
2015,01,18,06,25,53.10
2015,01,18,06,26,41.80
2015,01,18,06,27,25.70
2015,01,18,06,28,64.40
2015,01,18,06,29,54.70
2015,01,18,06,30,40.20
2015,01,18,06,31,49.90
2015,01,18,06,32,45.10
2015,01,18,06,33,43.50
2015,01,18,06,34,51.50
2015,01,18,06,35,41.80
2015,01,18,06,36,37.00
2015,01,18,06,37,40.20
2015,01,18,06,38,29.00
2015,01,18,06,39,40.20
2015,01,18,06,40,37.00
2015,01,18,06,41,40.20
2015,01,18,06,42,53.10
2015,01,18,06,43,53.10
2015,01,18,06,44,49.90
2015,01,18,06,45,56.30
2015,01,18,06,46,41.80
2015,01,18,06,47,40.20
2015,01,18,06,48,54.70
2015,01,18,06,49,61.20
2015,01,18,06,50,53.10
2015,01,18,06,51,46.70
2015,01,18,06,52,41.80
2015,01,18,06,53,43.50
2015,01,18,06,54,37.00
2015,01,18,06,55,46.70
2015,01,18,06,56,40.20
2015,01,18,06,57,43.50
2015,01,18,06,58,49.90
2015,01,18,06,59,62.70
2015,01,18,07,00,56.30
2015,01,18,07,01,43.50
2015,01,18,07,02,53.10
2015,01,18,07,03,33.80
2015,01,18,07,04,54.70
2015,01,18,07,05,43.50
2015,01,18,07,06,51.50
2015,01,18,07,07,45.10
2015,01,18,07,08,38.60
2015,01,18,07,09,46.70
2015,01,18,07,10,40.20
2015,01,18,07,11,45.10
2015,01,18,07,12,45.10
2015,01,18,07,13,41.80
2015,01,18,07,14,38.60
2015,01,18,07,15,48.30
2015,01,18,07,16,53.10
2015,01,18,07,17,53.10
2015,01,18,07,18,38.60
2015,01,18,07,19,45.10
2015,01,18,07,20,80.50
2015,01,18,07,21,59.50
2015,01,18,07,22,61.20
2015,01,18,07,23,35.40
2015,01,18,07,24,40.20
2015,01,18,07,25,38.60
2015,01,18,07,26,40.20
2015,01,18,07,27,62.70
2015,01,18,07,28,45.10
2015,01,18,07,29,51.50
2015,01,18,07,30,41.80
2015,01,18,07,31,48.30
2015,01,18,07,32,41.80
2015,01,18,07,33,30.60
2015,01,18,07,34,43.50
2015,01,18,07,35,45.10
2015,01,18,07,36,45.10
2015,01,18,07,37,46.70
2015,01,18,07,38,37.00
2015,01,18,07,39,48.30
2015,01,18,07,40,43.50
2015,01,18,07,41,35.40
2015,01,18,07,42,24.20
2015,01,18,07,43,35.40
2015,01,18,07,44,30.60
2015,01,18,07,45,51.50
2015,01,18,07,46,70.80
2015,01,18,07,47,69.20
2015,01,18,07,48,41.80
2015,01,18,07,49,45.10
2015,01,18,07,50,54.70
2015,01,18,07,51,46.70
2015,01,18,07,52,46.70
2015,01,18,07,53,51.50
2015,01,18,07,54,48.30
2015,01,18,07,55,69.20
2015,01,18,07,56,49.90
2015,01,18,07,57,41.80
2015,01,18,07,58,64.40
2015,01,18,07,59,57.90
2015,01,18,08,00,64.40
2015,01,18,08,01,51.50
2015,01,18,08,02,51.50
2015,01,18,08,03,70.80
2015,01,18,08,04,66.00
2015,01,18,08,05,69.20
2015,01,18,08,06,62.70
2015,01,18,08,07,66.00
2015,01,18,08,08,43.50
2015,01,18,08,09,38.60
2015,01,18,08,10,43.50
2015,01,18,08,11,46.70
2015,01,18,08,12,54.70
2015,01,18,08,13,43.50
2015,01,18,08,14,49.90
2015,01,18,08,15,49.90
2015,01,18,08,16,61.20
2015,01,18,08,17,56.30
2015,01,18,08,18,64.40
2015,01,18,08,19,56.30
2015,01,18,08,20,59.50
2015,01,18,08,21,64.40
2015,01,18,08,22,78.80
2015,01,18,08,23,56.30
2015,01,18,08,24,41.80
2015,01,18,08,25,49.90
2015,01,18,08,26,64.40
2015,01,18,08,27,62.70
2015,01,18,08,28,46.70
2015,01,18,08,29,54.70
2015,01,18,08,30,56.30
2015,01,18,08,31,56.30
2015,01,18,08,32,53.10
2015,01,18,08,33,46.70
2015,01,18,08,34,57.90
2015,01,18,08,35,43.50
2015,01,18,08,36,62.70
2015,01,18,08,37,38.60
2015,01,18,08,38,46.70
2015,01,18,08,39,51.50
2015,01,18,08,40,51.50
2015,01,18,08,41,54.70
2015,01,18,08,42,37.00
2015,01,18,08,43,40.20
2015,01,18,08,44,41.80
2015,01,18,08,45,49.90
2015,01,18,08,46,53.10
2015,01,18,08,47,48.30
2015,01,18,08,48,32.20
2015,01,18,08,49,41.80
2015,01,18,08,50,33.80
2015,01,18,08,51,45.10
2015,01,18,08,52,48.30
2015,01,18,08,53,41.80
2015,01,18,08,54,45.10
2015,01,18,08,55,53.10
2015,01,18,08,56,38.60
2015,01,18,08,57,33.80
2015,01,18,08,58,24.20
2015,01,18,08,59,43.50
2015,01,18,09,00,45.10
2015,01,18,09,01,30.60
2015,01,18,09,02,33.80
2015,01,18,09,03,35.40
2015,01,18,09,04,33.80
2015,01,18,09,05,35.40
2015,01,18,09,06,32.20
2015,01,18,09,07,38.60
2015,01,18,09,08,29.00
2015,01,18,09,09,30.60
2015,01,18,09,10,48.30
2015,01,18,09,11,45.10
2015,01,18,09,12,40.20
2015,01,18,09,13,51.50
2015,01,18,09,14,33.80
2015,01,18,09,15,51.50
2015,01,18,09,16,33.80
2015,01,18,09,17,32.20
2015,01,18,09,18,38.60
2015,01,18,09,19,35.40
2015,01,18,09,20,29.00
2015,01,18,09,21,49.90
2015,01,18,09,22,41.80
2015,01,18,09,23,30.60
2015,01,18,09,24,19.30
2015,01,18,09,25,25.70
2015,01,18,09,26,32.20
2015,01,18,09,27,19.30
2015,01,18,09,28,27.40
2015,01,18,09,29,22.50
2015,01,18,09,30,20.90
2015,01,18,09,31,27.40
2015,01,18,09,32,11.30
2015,01,18,09,33,27.40
2015,01,18,09,34,37.00
2015,01,18,09,35,17.70
2015,01,18,09,36,17.70
2015,01,18,09,37,29.00
2015,01,18,09,38,33.80
2015,01,18,09,39,24.20
2015,01,18,09,40,32.20
2015,01,18,09,41,37.00
2015,01,18,09,42,29.00
2015,01,18,09,43,20.90
2015,01,18,09,44,38.60
2015,01,18,09,45,17.70
2015,01,18,09,46,16.10
2015,01,18,09,47,30.60
2015,01,18,09,48,29.00
2015,01,18,09,49,27.40
2015,01,18,09,50,32.20
2015,01,18,09,51,22.50
2015,01,18,09,52,30.60
2015,01,18,09,53,29.00
2015,01,18,09,54,25.70
2015,01,18,09,55,24.20
2015,01,18,09,56,14.50
2015,01,18,09,57,29.00
2015,01,18,09,58,24.20
2015,01,18,09,59,33.80
2015,01,18,10,00,24.20
2015,01,18,10,01,27.40
2015,01,18,10,02,27.40
2015,01,18,10,03,30.60
2015,01,18,10,04,25.70
2015,01,18,10,05,46.70
2015,01,18,10,06,33.80
2015,01,18,10,07,38.60
2015,01,18,10,08,40.20
2015,01,18,10,09,45.10
2015,01,18,10,10,30.60
2015,01,18,10,11,35.40
2015,01,18,10,12,40.20
2015,01,18,10,13,24.20
2015,01,18,10,14,29.00
2015,01,18,10,15,29.00
2015,01,18,10,16,16.10
2015,01,18,10,17,24.20
2015,01,18,10,18,27.40
2015,01,18,10,19,35.40
2015,01,18,10,20,24.20
2015,01,18,10,21,30.60
2015,01,18,10,22,35.40
2015,01,18,10,23,29.00
2015,01,18,10,24,30.60
2015,01,18,10,25,37.00
2015,01,18,10,26,30.60
2015,01,18,10,27,29.00
2015,01,18,10,28,25.70
2015,01,18,10,29,37.00
2015,01,18,10,30,40.20
2015,01,18,10,31,35.40
2015,01,18,10,32,24.20
2015,01,18,10,33,37.00
2015,01,18,10,34,35.40
2015,01,18,10,35,25.70
2015,01,18,10,36,37.00
2015,01,18,10,37,19.30
2015,01,18,10,38,33.80
2015,01,18,10,39,30.60
2015,01,18,10,40,19.30
2015,01,18,10,41,25.70
2015,01,18,10,42,22.50
2015,01,18,10,43,20.90
2015,01,18,10,44,24.20
2015,01,18,10,45,27.40
2015,01,18,10,46,17.70
2015,01,18,10,47,25.70
2015,01,18,10,48,22.50
2015,01,18,10,49,24.20
2015,01,18,10,50,19.30
2015,01,18,10,51,14.50
2015,01,18,10,52,24.20
2015,01,18,10,53,29.00
2015,01,18,10,54,14.50
2015,01,18,10,55,25.70
2015,01,18,10,56,24.20
2015,01,18,10,57,20.90
2015,01,18,10,58,22.50
2015,01,18,10,59,27.40
2015,01,18,11,00,19.30
2015,01,18,11,01,20.90
2015,01,18,11,02,22.50
2015,01,18,11,03,20.90
2015,01,18,11,04,16.10
2015,01,18,11,05,22.50
2015,01,18,11,06,20.90
2015,01,18,11,07,17.70
2015,01,18,11,08,20.90
2015,01,18,11,09,14.50
2015,01,18,11,10,17.70
2015,01,18,11,11,16.10
2015,01,18,11,12,16.10
2015,01,18,11,13,12.90
2015,01,18,11,14,11.30
2015,01,18,11,15,12.90
2015,01,18,11,16,16.10
2015,01,18,11,17,12.90
2015,01,18,11,18,9.60
2015,01,18,11,19,11.30
2015,01,18,11,20,14.50
2015,01,18,11,21,14.50
2015,01,18,11,22,17.70
2015,01,18,11,23,19.30
2015,01,18,11,24,12.90
2015,01,18,11,25,12.90
2015,01,18,11,26,12.90
2015,01,18,11,27,14.50
2015,01,18,11,28,29.00
2015,01,18,11,29,29.00
2015,01,18,11,30,19.30
2015,01,18,11,31,25.70
2015,01,18,11,32,22.50
2015,01,18,11,33,16.10
2015,01,18,11,34,12.90
2015,01,18,11,35,20.90
2015,01,18,11,36,35.40
2015,01,18,11,37,24.20
2015,01,18,11,38,22.50
2015,01,18,11,39,20.90
2015,01,18,11,40,22.50
2015,01,18,11,41,24.20
2015,01,18,11,42,16.10
2015,01,18,11,43,19.30
2015,01,18,11,44,11.30
2015,01,18,11,45,14.50
2015,01,18,11,46,11.30
2015,01,18,11,47,16.10
2015,01,18,11,48,17.70
2015,01,18,11,49,14.50
2015,01,18,11,50,12.90
2015,01,18,11,51,16.10
2015,01,18,11,52,11.30
2015,01,18,11,53,14.50
2015,01,18,11,54,17.70
2015,01,18,11,55,22.50
2015,01,18,11,56,17.70
2015,01,18,11,57,12.90
2015,01,18,11,58,17.70
2015,01,18,11,59,22.50
2015,01,18,12,00,22.50
2015,01,18,12,01,22.50
2015,01,18,12,02,19.30
2015,01,18,12,03,19.30
2015,01,18,12,04,20.90
2015,01,18,12,05,19.30
2015,01,18,12,06,25.70
2015,01,18,12,07,17.70
2015,01,18,12,08,16.10
2015,01,18,12,09,17.70
2015,01,18,12,10,24.20
2015,01,18,12,11,16.10
2015,01,18,12,12,17.70
2015,01,18,12,13,17.70
2015,01,18,12,14,22.50
2015,01,18,12,15,19.30
2015,01,18,12,16,19.30
2015,01,18,12,17,17.70
2015,01,18,12,18,27.40
2015,01,18,12,19,17.70
2015,01,18,12,20,17.70
2015,01,18,12,21,16.10
2015,01,18,12,22,17.70
2015,01,18,12,23,20.90
2015,01,18,12,24,16.10
2015,01,18,12,25,20.90
2015,01,18,12,26,17.70
2015,01,18,12,27,16.10
2015,01,18,12,28,14.50
2015,01,18,12,29,20.90
2015,01,18,12,30,27.40
2015,01,18,12,31,20.90
2015,01,18,12,32,20.90
2015,01,18,12,33,20.90
2015,01,18,12,34,24.20
2015,01,18,12,35,19.30
2015,01,18,12,36,16.10
2015,01,18,12,37,17.70
2015,01,18,12,38,20.90
2015,01,18,12,39,25.70
2015,01,18,12,40,24.20
2015,01,18,12,41,29.00
2015,01,18,12,42,33.80
2015,01,18,12,43,19.30
2015,01,18,12,44,12.90
2015,01,18,12,45,19.30
2015,01,18,12,46,19.30
2015,01,18,12,47,22.50
2015,01,18,12,48,22.50
2015,01,18,12,49,24.20
2015,01,18,12,50,25.70
2015,01,18,12,51,20.90
2015,01,18,12,52,20.90
2015,01,18,12,53,11.30
2015,01,18,12,54,14.50
2015,01,18,12,55,16.10
2015,01,18,12,56,29.00
2015,01,18,12,57,20.90
2015,01,18,12,58,17.70
2015,01,18,12,59,20.90
2015,01,18,13,00,24.20
2015,01,18,13,01,25.70
2015,01,18,13,02,17.70
2015,01,18,13,03,19.30
2015,01,18,13,04,17.70
2015,01,18,13,05,16.10
2015,01,18,13,06,16.10
2015,01,18,13,07,24.20
2015,01,18,13,08,16.10
2015,01,18,13,09,24.20
2015,01,18,13,10,29.00
2015,01,18,13,11,25.70
2015,01,18,13,12,27.40
2015,01,18,13,13,22.50
2015,01,18,13,14,20.90
2015,01,18,13,15,24.20
2015,01,18,13,16,30.60
2015,01,18,13,17,33.80
2015,01,18,13,18,33.80
2015,01,18,13,19,27.40
2015,01,18,13,20,32.20
2015,01,18,13,21,27.40
2015,01,18,13,22,29.00
2015,01,18,13,23,33.80
2015,01,18,13,24,35.40
2015,01,18,13,25,29.00
2015,01,18,13,26,20.90
2015,01,18,13,27,27.40
2015,01,18,13,28,27.40
2015,01,18,13,29,27.40
2015,01,18,13,30,29.00
2015,01,18,13,31,33.80
2015,01,18,13,32,29.00
2015,01,18,13,33,27.40
2015,01,18,13,34,27.40
2015,01,18,13,35,29.00
2015,01,18,13,36,24.20
2015,01,18,13,37,24.20
2015,01,18,13,38,32.20
2015,01,18,13,39,29.00
2015,01,18,13,40,22.50
2015,01,18,13,41,24.20
2015,01,18,13,42,19.30
2015,01,18,13,43,17.70
2015,01,18,13,44,16.10
2015,01,18,13,45,17.70
2015,01,18,13,46,16.10
2015,01,18,13,47,17.70
2015,01,18,13,48,25.70
2015,01,18,13,49,27.40
2015,01,18,13,50,19.30
2015,01,18,13,51,25.70
2015,01,18,13,52,30.60
2015,01,18,13,53,29.00
2015,01,18,13,54,24.20
2015,01,18,13,55,25.70
2015,01,18,13,56,35.40
2015,01,18,13,57,41.80
2015,01,18,13,58,29.00
2015,01,18,13,59,25.70
2015,01,18,14,00,32.20
2015,01,18,14,01,22.50
2015,01,18,14,02,32.20
2015,01,18,14,03,20.90
2015,01,18,14,04,29.00
2015,01,18,14,05,29.00
2015,01,18,14,06,24.20
2015,01,18,14,07,24.20
2015,01,18,14,08,27.40
2015,01,18,14,09,27.40
2015,01,18,14,10,27.40
2015,01,18,14,11,27.40
2015,01,18,14,12,30.60
2015,01,18,14,13,32.20
2015,01,18,14,14,25.70
2015,01,18,14,15,17.70
2015,01,18,14,16,22.50
2015,01,18,14,17,25.70
2015,01,18,14,18,19.30
2015,01,18,14,19,14.50
2015,01,18,14,20,16.10
2015,01,18,14,21,11.30
2015,01,18,14,22,17.70
2015,01,18,14,23,24.20
2015,01,18,14,24,19.30
2015,01,18,14,25,19.30
2015,01,18,14,26,16.10
2015,01,18,14,27,12.90
2015,01,18,14,28,11.30
2015,01,18,14,29,11.30
2015,01,18,14,30,17.70
2015,01,18,14,31,14.50
2015,01,18,14,32,17.70
2015,01,18,14,33,22.50
2015,01,18,14,34,16.10
2015,01,18,14,35,19.30
2015,01,18,14,36,19.30
2015,01,18,14,37,17.70
2015,01,18,14,38,24.20
2015,01,18,14,39,16.10
2015,01,18,14,40,20.90
2015,01,18,14,41,22.50
2015,01,18,14,42,19.30
2015,01,18,14,43,22.50
2015,01,18,14,44,27.40
2015,01,18,14,45,25.70
2015,01,18,14,46,24.20
2015,01,18,14,47,29.00
2015,01,18,14,48,25.70
2015,01,18,14,49,27.40
2015,01,18,14,50,27.40
2015,01,18,14,51,22.50
2015,01,18,14,52,19.30
2015,01,18,14,53,24.20
2015,01,18,14,54,24.20
2015,01,18,14,55,24.20
2015,01,18,14,56,19.30
2015,01,18,14,57,19.30
2015,01,18,14,58,22.50
2015,01,18,14,59,19.30
2015,01,18,15,00,11.30
2015,01,18,15,01,14.50
2015,01,18,15,02,16.10
2015,01,18,15,03,19.30
2015,01,18,15,04,20.90
2015,01,18,15,05,22.50
2015,01,18,15,06,8.10
2015,01,18,15,07,12.90
2015,01,18,15,08,22.50
2015,01,18,15,09,17.70
2015,01,18,15,10,20.90
2015,01,18,15,11,29.00
2015,01,18,15,12,22.50
2015,01,18,15,13,19.30
2015,01,18,15,14,16.10
2015,01,18,15,15,12.90
2015,01,18,15,16,12.90
2015,01,18,15,17,9.60
2015,01,18,15,18,25.70
2015,01,18,15,19,19.30
2015,01,18,15,20,20.90
2015,01,18,15,21,14.50
2015,01,18,15,22,17.70
2015,01,18,15,23,17.70
2015,01,18,15,24,17.70
2015,01,18,15,25,17.70
2015,01,18,15,26,16.10
2015,01,18,15,27,12.90
2015,01,18,15,28,16.10
2015,01,18,15,29,14.50
2015,01,18,15,30,16.10
2015,01,18,15,31,8.10
2015,01,18,15,32,8.10
2015,01,18,15,33,4.80
2015,01,18,15,34,16.10
2015,01,18,15,35,14.50
2015,01,18,15,36,17.70
2015,01,18,15,37,12.90
2015,01,18,15,38,12.90
2015,01,18,15,39,8.10
2015,01,18,15,40,4.80
2015,01,18,15,41,6.40
2015,01,18,15,42,8.10
2015,01,18,15,43,11.30
2015,01,18,15,44,11.30
2015,01,18,15,45,11.30
2015,01,18,15,46,9.60
2015,01,18,15,47,16.10
2015,01,18,15,48,14.50
2015,01,18,15,49,16.10
2015,01,18,15,50,17.70
2015,01,18,15,51,19.30
2015,01,18,15,52,20.90
2015,01,18,15,53,22.50
2015,01,18,15,54,30.60
2015,01,18,15,55,22.50
2015,01,18,15,56,17.70
2015,01,18,15,57,22.50
2015,01,18,15,58,12.90
2015,01,18,15,59,22.50
2015,01,18,16,00,37.00
2015,01,18,16,01,35.40
2015,01,18,16,02,27.40
2015,01,18,16,03,32.20
2015,01,18,16,04,24.20
2015,01,18,16,05,30.60
2015,01,18,16,06,35.40
2015,01,18,16,07,38.60
2015,01,18,16,08,29.00
2015,01,18,16,09,27.40
2015,01,18,16,10,27.40
2015,01,18,16,11,19.30
2015,01,18,16,12,27.40
2015,01,18,16,13,32.20
2015,01,18,16,14,30.60
2015,01,18,16,15,33.80
2015,01,18,16,16,33.80
2015,01,18,16,17,32.20
2015,01,18,16,18,33.80
2015,01,18,16,19,25.70
2015,01,18,16,20,25.70
2015,01,18,16,21,29.00
2015,01,18,16,22,20.90
2015,01,18,16,23,27.40
2015,01,18,16,24,25.70
2015,01,18,16,25,27.40
2015,01,18,16,26,24.20
2015,01,18,16,27,25.70
2015,01,18,16,28,25.70
2015,01,18,16,29,24.20
2015,01,18,16,30,24.20
2015,01,18,16,31,22.50
2015,01,18,16,32,19.30
2015,01,18,16,33,14.50
2015,01,18,16,34,20.90
2015,01,18,16,35,17.70
2015,01,18,16,36,22.50
2015,01,18,16,37,17.70
2015,01,18,16,38,19.30
2015,01,18,16,39,16.10
2015,01,18,16,40,17.70
2015,01,18,16,41,20.90
2015,01,18,16,42,19.30
2015,01,18,16,43,14.50
2015,01,18,16,44,11.30
2015,01,18,16,45,14.50
2015,01,18,16,46,19.30
2015,01,18,16,47,22.50
2015,01,18,16,48,17.70
2015,01,18,16,49,19.30
2015,01,18,16,50,22.50
2015,01,18,16,51,22.50
2015,01,18,16,52,25.70
2015,01,18,16,53,20.90
2015,01,18,16,54,17.70
2015,01,18,16,55,16.10
2015,01,18,16,56,12.90
2015,01,18,16,57,14.50
2015,01,18,16,58,20.90
2015,01,18,16,59,16.10
2015,01,18,17,00,14.50
2015,01,18,17,01,11.30
2015,01,18,17,02,14.50
2015,01,18,17,03,12.90
2015,01,18,17,04,16.10
2015,01,18,17,05,16.10
2015,01,18,17,06,16.10
2015,01,18,17,07,16.10
2015,01,18,17,08,16.10
2015,01,18,17,09,22.50
2015,01,18,17,10,16.10
2015,01,18,17,11,22.50
2015,01,18,17,12,22.50
2015,01,18,17,13,14.50
2015,01,18,17,14,22.50
2015,01,18,17,15,16.10
2015,01,18,17,16,16.10
2015,01,18,17,17,14.50
2015,01,18,17,18,17.70
2015,01,18,17,19,16.10
2015,01,18,17,20,14.50
2015,01,18,17,21,11.30
2015,01,18,17,22,11.30
2015,01,18,17,23,17.70
2015,01,18,17,24,16.10